Flag Weather past 2 weeks in Oberlin, Ohio, U.S.A.

Now
24 °F

Mostly cloudy.


Feels Like: 11 °F
Forecast: 14 / 25 °F
Wind: 15 mph from West

Location: Lorain County Regional Airport

Current Time: Nov 20, 2014 at 7:05:37 PM

Latest Report: Nov 20, 2014 at 5:53 PM


Visibility: 10 mi

Pressure: 30.09 "Hg

Humidity: 62%

Dew point: 13 °F

Location of OberlinLocation

Historic Weather in Oberlin — Graph

°F

Oberlin temperature yesterday

Maximum temperature yesterday: 33 °F (at 5:53 PM)
Minimum temperature yesterday: 11 °F (at 1:53 AM)
Average temperature yesterday: 22 °F

Past Weeks' High & Low Weather Summary

 TemperatureHumidityPressure
High65 °F (Nov 11, 1:53 PM)100% (Nov 16, 8:53 PM)30.42 "Hg (Nov 16, 8:53 PM)
Low10 °F (Nov 18, 5:53 AM)35% (Nov 10, 1:53 PM)29.69 "Hg (Nov 17, 12:53 PM)
Average34 °F72%30.03 "Hg
* Reported Nov 5 5:53 PM — Nov 20 5:53 PM, Oberlin, Weather by CustomWeather, © 2014

Note: Actual official high and low records may vary slightly from our data, if they occured in-between our weather recording intervals... More about our weather records

Advertising

Oberlin weather history for previous 24 hours

 ConditionsComfort  
Time TempWeatherWind HumidityBarometerVisibility
5:53 PM
Nov 20
24 °FMostly cloudy.15 mph62%30.09 "Hg10 mi
4:53 PM24 °FOvercast.20 mph57%30.07 "Hg10 mi
3:53 PM25 °FLight snow. Mostly cloudy.22 mph58%30.04 "Hg9 mi
2:53 PM25 °FLight snow. Partly sunny.24 mph58%30.02 "Hg10 mi
1:53 PM26 °FOvercast.22 mph60%30.02 "Hg10 mi
12:53 PM26 °FMostly cloudy.18 mph60%30.02 "Hg10 mi
11:53 AM25 °FScattered clouds.24 mph60%30.03 "Hg9 mi
10:53 AM25 °FPartly sunny.23 mph63%30.03 "Hg10 mi
9:53 AM24 °FScattered clouds.23 mph65%30.03 "Hg10 mi
8:53 AM22 °FOvercast.18 mph68%30.02 "Hg10 mi
7:53 AM22 °FOvercast.21 mph68%30.01 "Hg10 mi
6:53 AM22 °FOvercast.20 mph68%30.00 "Hg10 mi
5:53 AM22 °FOvercast.15 mph68%29.99 "Hg10 mi
4:53 AM22 °FOvercast.16 mph68%29.99 "Hg10 mi
3:53 AM23 °FOvercast.17 mph65%29.98 "Hg10 mi
2:53 AM24 °FOvercast.20 mph65%29.98 "Hg10 mi
1:53 AM24 °FMostly cloudy.20 mph71%29.97 "Hg10 mi
12:53 AM25 °FOvercast.20 mph66%29.97 "Hg10 mi
11:53 PM
Nov 19
27 °FOvercast.22 mph66%29.96 "Hg10 mi
10:53 PM28 °FOvercast.21 mph66%29.94 "Hg10 mi
9:53 PM28 °FMostly cloudy.17 mph69%29.93 "Hg10 mi
8:53 PM30 °FOvercast.17 mph66%29.91 "Hg10 mi
7:53 PM32 °FLight snow. Overcast.22 mph64%29.89 "Hg9 mi
Weather by CustomWeather, © 2014

See weather overviewHow to use our weather pages